Flag for Australia Weather past 2 weeks in Toowoomba, Queensland, Australia

Now
82 °F

Overcast.


Feels Like: 82 °F
Forecast: 60 / 79 °F
Wind: 12 mph from West

Location: Oakey Aerodrome

Current Time: Jan 29, 2015 at 3:36:03 PM

Latest Report: Jan 29, 2015 at 3:00 PM


Visibility: N/A

Pressure: 29.70 "Hg

Humidity: 40%

Dew point: 56 °F

Location of ToowoombaLocation

Historic Weather in Toowoomba — Graph

°F

Toowoomba temperature yesterday

Maximum temperature yesterday: 73 °F (at 12:00 PM)
Minimum temperature yesterday: 63 °F (at 3:00 AM)
Average temperature yesterday: 67 °F

Past Weeks' High & Low Weather Summary

 TemperatureHumidityPressure
High97 °F (Jan 18, 3:00 PM)99% (Jan 18, 4:00 AM)29.85 "Hg (Jan 18, 4:00 AM)
Low59 °F (Jan 29, 6:00 AM)14% (Jan 18, 4:00 PM)29.60 "Hg (Jan 27, 4:00 PM)
Average76 °F68%29.72 "Hg
* Reported Jan 14 1:00 PM — Jan 29 1:00 PM, Toowoomba, Weather by CustomWeather, © 2014

Note: Actual official high and low records may vary slightly from our data, if they occured in-between our weather recording intervals... More about our weather records

Advertising

Toowoomba weather history for previous 24 hours

 ConditionsComfort  
Time TempWeatherWind HumidityBarometerVisibility
1:00 PM
Jan 29
79 °FWarm.8 mph49%29.73 "HgN/A
12:00 PM81 °FOvercast.6 mph52%29.75 "HgN/A
10:00 AM76 °FMild.8 mph56%29.78 "HgN/A
9:00 AM74 °FMild.10 mph57%29.77 "HgN/A
7:00 AM65 °FMild.3 mph81%29.77 "HgN/A
6:00 AM59 °FCool.6 mph93%29.75 "HgN/A
4:00 AM60 °FCool.3 mph94%29.71 "HgN/A
3:00 AM61 °FCool.3 mph92%29.72 "HgN/A
1:00 AM63 °FMild.6 mph89%29.74 "HgN/A
12:00 AM63 °FOvercast.6 mph88%29.75 "HgN/A
10:00 PM
Jan 28
65 °FMild.10 mph86%29.75 "HgN/A
9:00 PM65 °FOvercast.10 mph90%29.75 "HgN/A
7:00 PM65 °FMild.7 mph92%29.74 "HgN/A
6:00 PM67 °FOvercast.7 mph89%29.71 "HgN/A
4:00 PM68 °FMild.9 mph88%29.69 "HgN/A
3:00 PM71 °FOvercast.12 mph73%29.68 "HgN/A
Weather by CustomWeather, © 2014

See weather overviewHow to use our weather pages